Location: Unspecified
(64.9000°N, 0.0000°E)
Time: 10:42:10
(UTC+00:00)

Transit 2A Rocket - All Passes

Search period start: 18 June 2019 00:00
Search period end: 28 June 2019 00:00
Orbit: 586 x 917 km, 66.7° (Epoch: 17 June)

Date Brightness Start Highest point End Pass type
(mag) Time Alt. Az. Time Alt. Az. Time Alt. Az.
18 Jun - 10:04:02 10° SE 10:06:50 14° ESE 10:09:34 10° ENE daylight
18 Jun - 11:42:38 10° SSW 11:48:09 37° SE 11:53:25 10° ENE daylight
18 Jun - 13:24:21 10° SW 13:30:24 78° SSE 13:36:04 10° ENE daylight
18 Jun - 15:07:18 10° W 15:13:16 75° N 15:18:46 10° E daylight
18 Jun - 16:50:22 10° WNW 16:56:14 86° NNE 17:01:34 10° ESE daylight
18 Jun - 18:33:14 10° WNW 18:38:43 51° SW 18:43:42 10° SSE daylight
18 Jun - 20:16:31 10° WNW 20:20:14 19° WSW 20:23:44 10° SSW daylight
19 Jun - 11:00:46 10° S 11:05:52 29° ESE 11:10:46 10° ENE daylight
19 Jun - 12:41:55 10° SW 12:47:54 66° SE 12:53:32 10° ENE daylight
19 Jun - 14:24:38 10° W 14:30:38 79° NNW 14:36:12 10° ENE daylight
19 Jun - 16:07:45 10° WNW 16:13:38 79° NNE 16:19:00 10° E daylight
19 Jun - 17:50:39 10° WNW 17:56:19 63° SW 18:01:26 10° SE daylight
19 Jun - 19:33:40 10° WNW 19:38:06 25° WSW 19:42:14 10° S daylight
20 Jun - 10:19:09 10° SSE 10:23:40 22° ESE 10:28:02 10° ENE daylight
20 Jun - 11:59:34 10° SSW 12:05:27 54° SE 12:11:00 10° ENE daylight
20 Jun - 13:42:00 10° WSW 13:48:02 85° NNW 13:53:37 10° ENE daylight
20 Jun - 15:25:06 10° W 15:31:00 75° N 15:36:25 10° E daylight
20 Jun - 17:08:04 10° WNW 17:13:50 76° SSW 17:19:02 10° SE daylight
20 Jun - 18:50:58 10° WNW 18:55:54 33° SW 19:00:27 10° S daylight
20 Jun - 20:36:07 10° W 20:36:55 10° WSW 20:37:43 10° WSW daylight
21 Jun - 09:37:55 10° SSE 09:41:34 17° ESE 09:45:06 10° ENE daylight
21 Jun - 11:17:23 10° SSW 11:23:04 43° SE 11:28:27 10° ENE daylight
21 Jun - 12:59:25 10° WSW 13:05:27 86° SSE 13:11:04 10° ENE daylight
21 Jun - 14:42:27 10° W 14:48:22 74° N 14:53:49 10° E daylight
21 Jun - 16:25:29 10° WNW 16:31:18 88° SSW 16:36:34 10° ESE daylight
21 Jun - 18:08:20 10° WNW 18:13:37 43° SW 18:18:26 10° SSE daylight
21 Jun - 19:51:59 10° WNW 19:54:56 15° WSW 19:57:45 10° SW daylight
22 Jun - 08:57:25 10° SE 08:59:31 12° ESE 09:01:35 10° E daylight
22 Jun - 10:35:22 10° S 10:40:45 34° SE 10:45:52 10° ENE daylight
22 Jun - 12:16:55 10° SW 12:22:55 74° SSE 12:28:32 10° ENE daylight
22 Jun - 13:59:47 10° W 14:05:44 76° N 14:11:14 10° E daylight
22 Jun - 15:42:53 10° WNW 15:48:43 83° NNE 15:54:01 10° ESE daylight
22 Jun - 17:25:45 10° WNW 17:31:15 55° SW 17:36:15 10° SE daylight
22 Jun - 19:08:56 10° WNW 19:12:52 21° WSW 19:16:34 10° SSW daylight
23 Jun - 09:53:35 10° S 09:58:29 26° ESE 10:03:12 10° ENE daylight
23 Jun - 11:34:29 10° SW 11:40:26 62° SE 11:46:00 10° ENE daylight
23 Jun - 13:17:08 10° WSW 13:23:07 81° NNW 13:28:39 10° ENE daylight
23 Jun - 15:00:15 10° WNW 15:06:07 77° N 15:11:27 10° E daylight
23 Jun - 16:43:11 10° WNW 16:48:50 68° SW 16:53:56 10° SE daylight
23 Jun - 18:26:08 10° WNW 18:30:43 27° WSW 18:34:58 10° S daylight
24 Jun - 09:12:05 10° SSE 09:16:19 20° ESE 09:20:25 10° ENE daylight
24 Jun - 10:52:12 10° SSW 10:58:00 50° SE 11:03:29 10° ENE daylight
24 Jun - 12:34:31 10° WSW 12:40:31 88° NNW 12:46:05 10° ENE daylight
24 Jun - 14:17:36 10° W 14:23:29 74° N 14:28:51 10° E daylight
24 Jun - 16:00:36 10° WNW 16:06:20 80° SSW 16:11:31 10° ESE daylight
24 Jun - 17:43:28 10° WNW 17:48:29 36° SW 17:53:05 10° SSE daylight
24 Jun - 19:27:49 10° W 19:29:36 12° WSW 19:31:20 10° WSW daylight
25 Jun - 08:31:02 10° SE 08:34:13 15° ESE 08:37:20 10° ENE daylight
25 Jun - 10:10:05 10° SSW 10:15:38 40° SE 10:20:55 10° ENE daylight
25 Jun - 11:51:57 10° WSW 11:57:57 82° SSE 12:03:33 10° ENE daylight
25 Jun - 13:34:57 10° W 13:40:51 74° N 13:46:16 10° E daylight
25 Jun - 15:18:00 10° WNW 15:23:47 89° NNE 15:29:01 10° ESE daylight
25 Jun - 17:00:51 10° WNW 17:06:10 46° SW 17:11:01 10° SSE daylight
25 Jun - 18:44:18 10° WNW 18:47:36 17° WSW 18:50:43 10° SSW daylight
26 Jun - 07:51:17 10° ESE 07:52:13 10° ESE 07:53:08 10° E daylight
26 Jun - 09:28:08 10° S 09:33:20 31° SE 09:38:18 10° ENE daylight
26 Jun - 11:09:28 10° SW 11:15:27 70° SSE 11:21:01 10° ENE daylight
26 Jun - 12:52:17 10° W 12:58:13 77° N 13:03:40 10° ENE daylight
26 Jun - 14:35:23 10° WNW 14:41:12 81° NNE 14:46:28 10° ESE daylight
26 Jun - 16:18:16 10° WNW 16:23:48 59° SW 16:28:48 10° SE daylight
26 Jun - 18:01:22 10° WNW 18:05:30 22° WSW 18:09:22 10° SSW daylight
27 Jun - 08:46:26 10° S 08:51:07 24° ESE 08:55:37 10° ENE daylight
27 Jun - 10:27:06 10° SW 10:32:58 58° SE 10:38:29 10° ENE daylight
27 Jun - 12:09:38 10° WSW 12:15:36 83° NNW 12:21:06 10° ENE daylight
27 Jun - 13:52:45 10° W 13:58:35 76° N 14:03:53 10° E daylight
27 Jun - 15:35:42 10° WNW 15:41:20 72° SSW 15:46:27 10° SE daylight
27 Jun - 17:18:37 10° WNW 17:23:19 30° WSW 17:27:40 10° S daylight
